Location: Gorze? G�rny
(49.8500°N, 19.5000°E)
Time: 05:24:46
(UTC+00:00)

MetOp-B - Pass Details

Date: 13 May 2021
Orbit: 819 x 821 km, 98.7° (Epoch: 20 June)

Event Time Altitude Azimuth Distance (km) Brightness Sun altitude
Exits shadow 19:33:10 - 168° (SSE) 2,570 6.2 -10.3°
Reaches altitude 10° 19:33:34 10° 168° (SSE) 2,413 6.1 -10.3°
Maximum altitude 19:38:55 79° 256° (WSW) 843 4.3 -10.9°
Drops below altitude 10° 19:44:19 10° 343° (NNW) 2,429 7.7 -11.5°
Sets 19:46:40 0° 345° (NNW) 3,366 8.6 -11.8°
